Flag for Tajikistan Weather past 2 weeks in Dushanbe, Tajikistan

Now
82 °F

Broken clouds.


Feels Like: 83 °F
Forecast: 67 / 94 °F
Wind: 1 mph from North

Location: Dushanbe Airport

Current Time: Aug 1, 2015 at 3:40:17 PM

Latest Report: Aug 1, 2015 at 3:00 PM


Visibility: 3 mi

Pressure: 29.80 "Hg (27.12 "Hg at 832m altitude)

Humidity: 48%

Dew point: 61 °F

Location of DushanbeLocation

Historic Weather in Dushanbe — Graph

°F

Dushanbe temperature yesterday

Maximum temperature yesterday: 88 °F (at 2:00 PM)
Minimum temperature yesterday: 75 °F (at 3:00 AM)
Average temperature yesterday: 81 °F

Past Weeks' High & Low Weather Summary

 TemperatureHumidityPressure
High100 °F (Jul 20, 2:30 PM)73% (Jul 23, 5:30 AM)29.95 "Hg (Jul 23, 5:30 AM)
Low68 °F (Jul 29, 5:00 AM)19% (Jul 27, 12:00 PM)29.56 "Hg (Jul 27, 3:30 PM)
Average84 °F43%29.74 "Hg
* Reported Jul 17 2:00 PM — Aug 1 2:30 PM, Dushanbe, Weather by CustomWeather, © 2015

Note: Actual official high and low records may vary slightly from our data, if they occured in-between our weather recording intervals... More about our weather records

Advertising

Dushanbe weather history for previous 24 hours

 ConditionsComfort  
Time TempWeatherWind HumidityBarometerVisibility
2:30 PM
Sat, Aug 1
82 °FBroken clouds.1 mph45%29.80 "Hg4 mi
2:00 PM82 °FPartly sunny.1 mph48%29.80 "Hg4 mi
1:30 PM81 °FPartly sunny.3 mph51%29.80 "Hg3 mi
1:00 PM82 °FPartly sunny.3 mph45%29.80 "Hg6 mi
12:30 PM82 °FPartly sunny.3 mph42%29.80 "Hg6 mi
12:00 PM81 °FPartly sunny.3 mph48%29.80 "Hg4 mi
11:30 AM81 °FPartly sunny.1 mph48%29.83 "HgN/A
11:00 AM79 °FOvercast.No wind51%29.83 "Hg5 mi
10:30 AM77 °FOvercast.1 mph57%29.80 "Hg4 mi
10:00 AM75 °FOvercast.1 mph65%29.80 "Hg3 mi
9:30 AM75 °FMore clouds than sun.1 mph65%29.80 "Hg4 mi
9:00 AM77 °FOvercast.No wind57%29.80 "HgN/A
8:30 AM75 °FMore clouds than sun.No wind57%29.80 "HgN/A
8:00 AM73 °FOvercast.No wind65%29.80 "HgN/A
7:30 AM73 °FOvercast.3 mph61%29.80 "HgN/A
7:00 AM73 °FOvercast.1 mph61%29.77 "HgN/A
6:30 AM73 °FOvercast.1 mph65%29.77 "HgN/A
6:00 AM72 °FOvercast.1 mph65%29.77 "HgN/A
5:30 AM72 °FOvercast.No wind65%29.77 "HgN/A
5:00 AM75 °FOvercast.1 mph54%29.77 "HgN/A
4:30 AM75 °FPassing clouds.3 mph54%29.77 "HgN/A
4:00 AM75 °FPassing clouds.3 mph54%29.77 "HgN/A
3:30 AM72 °FMostly cloudy.1 mph65%29.77 "HgN/A
2:30 AM75 °FOvercast.3 mph54%29.77 "HgN/A
2:00 AM73 °FOvercast.1 mph61%29.77 "HgN/A
1:30 AM75 °FMostly cloudy.3 mph57%29.77 "HgN/A
1:00 AM73 °FOvercast.6 mph61%29.77 "HgN/A
12:30 AM73 °FMostly cloudy.6 mph61%29.80 "HgN/A
12:00 AM75 °FPassing clouds.8 mph57%29.80 "HgN/A
11:30 PM
Fri, Jul 31
75 °FPartly cloudy.6 mph57%29.80 "HgN/A
11:00 PM79 °FSprinkles. Mostly cloudy.8 mph42%29.80 "HgN/A
10:30 PM79 °FMostly cloudy.6 mph45%29.80 "HgN/A
10:00 PM79 °FMostly cloudy.6 mph45%29.80 "HgN/A
9:30 PM79 °FMostly cloudy.6 mph48%29.80 "Hg6 mi
9:00 PM79 °FMostly cloudy.6 mph51%29.80 "Hg6 mi
8:30 PM81 °FSprinkles. Partly cloudy.1 mph39%29.80 "HgN/A
8:00 PM82 °FPartly cloudy.1 mph37%29.80 "HgN/A
7:30 PM81 °FPassing clouds.3 mph42%29.80 "HgN/A
7:00 PM81 °FPartly sunny.3 mph42%29.77 "HgN/A
6:30 PM84 °FScattered clouds.6 mph40%29.77 "HgN/A
6:00 PM84 °FPassing clouds.3 mph35%29.77 "HgN/A
5:30 PM86 °FPassing clouds.3 mph31%29.77 "HgN/A
5:00 PM86 °FPassing clouds.3 mph31%29.77 "HgN/A
4:30 PM88 °FPassing clouds.6 mph27%29.77 "HgN/A
4:00 PM88 °FPassing clouds.3 mph29%29.77 "HgN/A
3:30 PM88 °FPassing clouds.6 mph27%29.77 "HgN/A
3:00 PM88 °FPassing clouds.6 mph27%29.77 "HgN/A
Weather by CustomWeather, © 2015

See weather overviewHow to use our weather pages